Location: Chervonnoye
(48.6000°N, 34.4000°E)
Time: 06:11:16
(UTC+00:00)

Nadezhda 1 Rocket - Pass Details

Date: 23 April 2021
Orbit: 940 x 1006 km, 83.0° (Epoch: 13 May)

Event Time Altitude Azimuth Distance (km) Brightness Sun altitude
Exits shadow 00:04:50 12° 278° (W) 2,655 6.0 -21.1°
Maximum altitude 00:07:22 14° 303° (WNW) 2,467 6.0 -20.8°
Drops below altitude 10° 00:10:41 10° 335° (NNW) 2,777 6.7 -20.5°
Sets 00:14:40 0° 359° (N) 3,720 7.8 -20.0°
